Weather Roundup
Issued by NWS Chicago, IL

Home | Current Version | Previous Version | Graphics & Text | Print | Product List | Glossary On
Versions: 1 2 3 4 5 6 7 8 9 10 11 12 13 14 15 16 17 18 19 20 21 22 23 24 25 26 27 28 29 30 31 32 33 34 35 36 37 38 39 40 41 42 43 44 45 46 47 48 49 50
000
NZUS59 KLOT 241006
HRRLOT

CHICAGO AREA WEATHER ROUNDUP
NATIONAL WEATHER SERVICE CHICAGO/ROMEOVILLE IL
400 AM CST MON NOV 24 2014

NOTE: "FAIR" INDICATES FEW OR NO CLOUDS BELOW 12,000 FEET WITH NO
SIGNIFICANT WEATHER AND/OR OBSTRUCTIONS TO VISIBILITY.

* THESE STATIONS ARE NOT UNDER NWS QUALITY CONTROL. THEY ALSO MAY NOT
  REPORT WEATHER SUCH AS PRECIPITATION OR FOG.

ILZ005-006-012>014-019>023-241100-
NORTHEAST ILLINOIS

CITY           SKY/WX    TMP DP  RH WIND       PRES   REMARKS
OHARE          CLOUDY    48  47  96 SW7       29.07S
MIDWAY         LGT RAIN  50  49  96 SW7       29.09S FOG
AURORA         LGT RAIN  48  45  89 W10       29.09S FOG
LANSING*       RAIN      48  48  99 SW8       29.10F
JOLIET*        CLOUDY    48  47  97 SW6       29.10S
WAUKEGAN       CLOUDY    47  46  97 SW5       29.05S
DUPAGE AIRPORT LGT RAIN  48  46  93 SW8       29.08S FOG
WHEELING       CLOUDY    49  47  93 SW7       29.09S
KANKAKEE*      RAIN      49  49  99 SW8       29.12S
MORRIS*        RAIN      49  49 100 SW7       29.09F
LEWIS AIRPORT* DRIZZLE   48  48 100 SW10      29.09S
NORTHERLY IS     N/A     49  47  93 SW5         N/A
$$

WIZ051-052-058>065-066-070>072-241100-
SOUTHEAST WISCONSIN

CITY           SKY/WX    TMP DP  RH WIND       PRES   REMARKS
MILWAUKEE      LGT RAIN  46  45  96 W3        29.04S FOG
KENOSHA*       CLOUDY    47  46  97 W9        29.05S
RACINE*        CLOUDY    46  45  96 W7        29.06S FOG
BURLINGTON     CLOUDY    44  44 100 CALM      29.06R FOG
WAUKESHA       DRIZZLE   43  43 100 W6        29.05S
WEST BEND      DRIZZLE   43  41  93 W5        29.03S
$$

INZ001>003-010>013-019-020-241100-
NORTHWEST INDIANA

CITY           SKY/WX    TMP DP  RH WIND       PRES   REMARKS
GARY*          NOT AVBL
MICHIGAN CITY* NOT AVBL
RENSSELAER*    NOT AVBL
VALPARAISO     LGT RAIN  49  49 100 SW12      29.12S FOG
$$

LMZ740>746-241100-
SOUTHERN LAKE MICHIGAN

STATION/POSITION TIME  SKY/WX   TEMP WIND        PRES    VSBY
                                AIR  DIR/SP/G
                 (UTC)          (F)  (DEG/KT/KT) (MB)    (MI)
HARRISON CRIB    1000            49  220/ 11/ 15   N/A
BURNHAM HARBOR   1000            49  200/  5/  9   N/A
CALUMET HARBOR   1000            49  200/  4/  5  984.1F
BURNS HARBOR     NOT AVBL
MICHIGAN CITY    1000            49  190/ 14/ 17   N/A
$$

ABBREVIATIONS USED IN REMARKS
   TC - TEMPERATURE IN CELSIUS
  WCI - WIND CHILL INDEX
   HX - HEAT INDEX
  VSB - VISIBILITY
$$



USA.gov is the U.S. government's official web portal to all federal, state and local government web resources and services.